FW4334 Weather Reports


Display with metric or nautical units.
time (UTC)temp
F
wind
direction
speed
MPH
gust
MPH
rain 1hr
in
rain 24hr
in
rain mn
in
humidity
%
barometer
mb
20260506073047 61 119 0.0 0.0 0.00 0.00 0.00 90 1015.3
20260506072546 61 119 0.0 0.0 0.00 0.00 0.00 90 1015.4
20260506072046 61 360 0.0 0.0 0.00 0.00 0.00 90 1015.6
20260506071546 61 360 0.0 0.0 0.00 0.00 0.00 90 1015.7
20260506071045 61 360 0.0 0.0 0.00 0.00 0.00 90 1015.6
20260506070543 61 360 0.0 0.0 0.00 0.00 0.00 90 1015.8
20260506062040 61 128 0.0 0.0 0.00 0.00 0.00 89 1016.0
20260506061539 61 360 0.0 0.0 0.00 0.00 0.00 89 1016.1
20260506061039 61 134 0.0 0.0 0.00 0.00 0.00 89 1016.2
20260506060537 61 147 0.0 0.0 0.00 0.00 0.00 89 1016.2
20260506051031 62 360 0.0 0.0 0.00 0.00 0.00 88 1016.6
20260506050530 62 360 0.0 0.0 0.00 0.00 0.00 87 1016.5
20260506045027 63 360 0.0 0.0 0.00 0.00 0.00 87 1016.9
20260506044535 63 128 0.0 0.0 0.00 0.00 0.00 87 1016.9
20260506044028 63 360 0.0 0.0 0.00 0.00 0.00 86 1017.0
20260506043531 63 360 0.0 0.0 0.00 0.00 0.00 86 1017.1
20260506043025 63 360 0.0 0.0 0.00 0.00 0.00 86 1017.0
20260506042525 63 360 0.0 0.0 0.00 0.00 0.00 86 1017.0
20260506042024 63 360 0.0 0.0 0.00 0.00 0.00 85 1017.0
20260506041522 63 360 0.0 0.0 0.00 0.00 0.00 85 1017.0
20260506041021 63 360 0.0 0.0 0.00 0.00 0.00 85 1017.1
20260506040520 64 360 0.0 0.0 0.00 0.00 0.00 84 1017.2
20260506040019 64 360 0.0 0.0 0.00 0.00 0.00 84 1017.2
20260506035520 64 360 0.0 0.0 0.00 0.00 0.00 84 1017.2
20260506035019 64 360 0.0 0.0 0.00 0.00 0.00 83 1017.2
20260506034521 64 360 0.0 0.0 0.00 0.00 0.00 83 1017.1
20260506034019 65 360 0.0 0.0 0.00 0.00 0.00 82 1017.0
20260506033518 65 360 0.0 0.0 0.00 0.00 0.00 82 1016.9
20260506033018 65 360 0.0 0.0 0.00 0.00 0.00 82 1016.9
20260506032518 65 360 0.0 0.0 0.00 0.00 0.00 82 1016.9
20260506032019 66 360 0.0 0.0 0.00 0.00 0.00 81 1016.7
20260506031518 66 360 0.0 0.0 0.00 0.00 0.00 81 1016.7
20260506031017 66 140 0.0 0.0 0.00 0.00 0.00 80 1016.7
20260506030517 66 360 0.0 0.0 0.00 0.00 0.00 80 1016.6
20260506030019 66 360 0.0 0.0 0.00 0.00 0.00 79 1016.6
20260506025517 67 360 0.0 0.0 0.00 0.00 0.00 79 1016.6
20260506025017 67 360 0.0 0.0 0.00 0.00 0.00 78 1016.6
20260506024517 67 119 0.0 0.0 0.00 0.00 0.00 78 1016.6
20260506024017 67 120 0.0 0.0 0.00 0.00 0.00 78 1016.7
20260506023517 68 360 0.0 0.0 0.00 0.00 0.00 77 1016.7
20260506023029 68 360 0.0 0.0 0.00 0.00 0.00 77 1016.7
20260506022516 68 360 0.0 0.0 0.00 0.00 0.00 76 1016.5
20260506022026 69 120 0.0 0.0 0.00 0.00 0.00 75 1016.4
20260506021530 69 120 0.0 0.0 0.00 0.00 0.00 75 1016.3
20260506021021 69 119 0.0 0.0 0.00 0.00 0.00 74 1016.4
20260506020515 69 360 0.0 0.0 0.00 0.00 0.00 74 1016.2
20260506020016 69 360 0.0 0.0 0.00 0.00 0.00 74 1016.3
20260506015515 70 120 0.0 0.0 0.00 0.00 0.00 73 1016.2
20260506015015 70 121 0.0 0.0 0.00 0.00 0.00 73 1016.1
20260506014518 70 120 0.0 0.0 0.00 0.00 0.00 72 1016.1
20260506014014 70 360 0.0 0.0 0.00 0.00 0.00 72 1016.1
20260506013516 70 120 0.0 0.0 0.00 0.00 0.00 72 1016.0
20260506013018 70 120 0.0 0.0 0.00 0.00 0.00 72 1015.9
20260506012514 71 360 0.0 0.0 0.00 0.00 0.00 72 1015.9
20260506012014 71 119 0.0 0.0 0.00 0.00 0.00 72 1015.9
20260506011514 71 119 0.0 0.0 0.00 0.00 0.00 71 1015.8
20260506011012 71 360 0.0 0.0 0.00 0.00 0.00 70 1015.8
20260506010513 72 117 0.0 0.0 0.00 0.00 0.00 70 1015.7
20260506010014 72 117 0.0 2.0 0.00 0.00 0.00 69 1015.7
20260506005511 72 127 0.0 2.0 0.00 0.00 0.00 68 1015.8
20260506005013 72 125 0.0 2.0 0.00 0.00 0.00 68 1015.7
20260506004512 73 125 0.0 3.0 0.00 0.00 0.00 67 1015.5
20260506004013 73 121 1.0 3.0 0.00 0.00 0.00 66 1015.5
20260506003515 73 116 0.0 2.0 0.00 0.00 0.00 66 1015.5
20260506003013 73 121 0.0 2.0 0.00 0.00 0.00 65 1015.5
20260506002511 74 119 0.0 3.0 0.00 0.00 0.00 66 1015.5
20260506002009 74 121 0.0 3.0 0.00 0.00 0.00 64 1015.5
20260506001509 74 360 0.0 3.0 0.00 0.00 0.00 64 1015.5
20260506001009 74 111 0.0 3.0 0.00 0.00 0.00 63 1015.3
20260506000509 74 108 1.0 3.0 0.00 0.00 0.00 62 1015.3
20260506000008 75 115 1.0 7.0 0.00 0.00 0.00 62 1015.1
20260505235511 75 117 2.0 7.0 0.00 0.00 0.00 61 1015.2
20260505235008 75 118 1.0 6.0 0.00 0.00 0.00 60 1015.2
20260505234508 75 126 1.0 4.0 0.00 0.00 0.00 60 1015.3
20260505234008 76 119 1.0 5.0 0.00 0.00 0.00 59 1015.3
20260505233510 76 123 1.0 5.0 0.00 0.00 0.00 58 1015.1
20260505233007 76 123 1.0 6.0 0.00 0.00 0.00 57 1015.1
20260505232507 76 112 1.0 4.0 0.00 0.00 0.00 57 1015.2
20260505232010 76 120 1.0 9.0 0.00 0.00 0.00 57 1015.2
20260505231509 77 110 2.0 9.0 0.00 0.00 0.00 56 1015.1
20260505231011 77 123 4.0 9.0 0.00 0.00 0.00 56 1015.2
20260505230506 77 128 4.0 9.0 0.00 0.00 0.00 56 1015.2
20260505230010 77 123 1.0 9.0 0.00 0.00 0.00 56 1015.2
20260505225506 78 114 3.0 9.0 0.00 0.00 0.00 56 1015.1
20260505225006 78 118 2.0 7.0 0.00 0.00 0.00 56 1015.2
20260505224510 78 127 1.0 7.0 0.00 0.00 0.00 55 1015.1
20260505224004 78 96 2.0 7.0 0.00 0.00 0.00 55 1015.0
20260505223504 78 118 2.0 9.0 0.00 0.00 0.00 55 1015.0
20260505223005 78 115 1.0 7.0 0.00 0.00 0.00 55 1015.0
20260505222507 78 123 3.0 7.0 0.00 0.00 0.00 56 1015.0
20260505222004 79 120 3.0 9.0 0.00 0.00 0.00 56 1014.9
20260505221504 79 111 3.0 9.0 0.00 0.00 0.00 55 1015.0
20260505221003 79 143 2.0 8.0 0.00 0.00 0.00 55 1015.1
20260505220503 79 111 2.0 8.0 0.00 0.00 0.00 55 1014.9
20260505220003 79 101 2.0 9.0 0.00 0.00 0.00 55 1015.1
20260505215505 79 106 4.0 9.0 0.00 0.00 0.00 55 1014.9
20260505215003 79 94 2.0 11.0 0.00 0.00 0.00 55 1014.8
20260505214503 79 117 3.0 11.0 0.00 0.00 0.00 55 1014.9
20260505214002 79 114 4.0 8.0 0.00 0.00 0.00 54 1014.9
20260505213504 80 121 4.0 10.0 0.00 0.00 0.00 54 1014.9
20260505213007 80 137 5.0 8.0 0.00 0.00 0.00 54 1015.0
20260505212502 80 129 1.0 7.0 0.00 0.00 0.00 54 1015.0
20260505212002 80 144 3.0 11.0 0.00 0.00 0.00 53 1015.0
20260505211507 81 103 4.0 11.0 0.00 0.00 0.00 53 1015.1
20260505211002 81 126 3.0 11.0 0.00 0.00 0.00 52 1015.0
20260505210500 81 100 1.0 8.0 0.00 0.00 0.00 53 1014.9
20260505210001 82 115 3.0 8.0 0.00 0.00 0.00 52 1015.1
20260505205501 82 115 2.0 7.0 0.00 0.00 0.00 52 1015.1
20260505205000 82 128 1.0 12.0 0.00 0.00 0.00 53 1015.0
20260505204500 82 116 5.0 12.0 0.00 0.00 0.00 52 1015.1
20260505204100 82 143 2.0 9.0 0.00 0.00 0.00 53 1015.0
20260505203601 82 115 2.0 10.0 0.00 0.00 0.00 53 1015.1
20260505203122 82 115 4.0 10.0 0.00 0.00 0.00 53 1015.1
20260505202604 82 117 3.0 10.0 0.00 0.00 0.00 54 1015.2
20260505202100 82 114 5.0 10.0 0.00 0.00 0.00 53 1015.4
20260505201604 81 110 3.0 9.0 0.00 0.00 0.00 54 1015.3
20260505201059 82 124 4.0 9.0 0.00 0.00 0.00 54 1015.3
20260505200559 82 105 4.0 9.0 0.00 0.00 0.00 54 1015.4
20260505200059 82 117 4.0 8.0 0.00 0.00 0.00 53 1015.2
20260505195602 83 127 4.0 9.0 0.00 0.00 0.00 53 1015.3
20260505195101 83 127 2.0 9.0 0.00 0.00 0.00 53 1015.5
20260505194558 83 119 2.0 9.0 0.00 0.00 0.00 53 1015.5
20260505194057 83 109 3.0 10.0 0.00 0.00 0.00 53 1015.5
20260505193556 83 142 3.0 10.0 0.00 0.00 0.00 52 1015.6
20260505193056 83 125 1.0 7.0 0.00 0.00 0.00 51 1015.5
20260505192559 83 123 1.0 8.0 0.00 0.00 0.00 51 1015.6
20260505192055 84 126 3.0 8.0 0.00 0.00 0.00 49 1015.7
20260505191608 84 11 0.0 8.0 0.00 0.00 0.00 48 1015.8
20260505191055 84 42 1.0 8.0 0.00 0.00 0.00 48 1015.8
20260505190554 84 47 0.0 3.0 0.00 0.00 0.00 49 1015.8
20260505190054 84 131 0.0 4.0 0.00 0.00 0.00 48 1016.0
20260505185554 84 140 3.0 4.0 0.00 0.00 0.00 47 1016.1
20260505185053 84 111 1.0 4.0 0.00 0.00 0.00 47 1016.0
20260505184552 85 128 1.0 6.0 0.00 0.00 0.00 46 1016.1
20260505184054 85 119 1.0 6.0 0.00 0.00 0.00 47 1016.0
20260505183551 85 100 0.0 3.0 0.00 0.00 0.00 47 1016.1
20260505183051 85 53 0.0 4.0 0.00 0.00 0.00 47 1016.2
20260505182550 85 77 1.0 7.0 0.00 0.00 0.00 48 1016.3
20260505182050 85 121 1.0 7.0 0.00 0.00 0.00 47 1016.4
20260505181551 85 92 0.0 3.0 0.00 0.00 0.00 49 1016.4
20260505181048 84 43 0.0 4.0 0.00 0.00 0.00 49 1016.4
20260505180546 84 120 0.0 4.0 0.00 0.00 0.00 48 1016.5
20260505180049 84 115 2.0 3.0 0.00 0.00 0.00 48 1016.5
20260505175544 83 34 1.0 7.0 0.00 0.00 0.00 49 1016.5
20260505175043 84 116 3.0 7.0 0.00 0.00 0.00 48 1016.5
20260505174544 84 131 1.0 5.0 0.00 0.00 0.00 49 1016.5
20260505174041 83 46 1.0 4.0 0.00 0.00 0.00 49 1016.8
20260505173539 82 123 1.0 4.0 0.00 0.00 0.00 50 1017.0
20260505173040 82 177 1.0 7.0 0.00 0.00 0.00 52 1016.9
20260505172539 82 118 1.0 7.0 0.00 0.00 0.00 51 1016.8
20260505172039 82 150 1.0 7.0 0.00 0.00 0.00 52 1016.9
20260505171543 82 183 3.0 7.0 0.00 0.00 0.00 50 1016.9
20260505171038 83 136 1.0 4.0 0.00 0.00 0.00 53 1016.9
20260505170536 82 122 0.0 5.0 0.00 0.00 0.00 51 1017.1
20260505170050 82 119 2.0 5.0 0.00 0.00 0.00 52 1017.1
20260505165536 82 123 0.0 3.0 0.00 0.00 0.00 51 1017.1
20260505165038 82 62 1.0 4.0 0.00 0.00 0.00 53 1017.1
20260505164535 82 99 0.0 3.0 0.00 0.00 0.00 53 1017.2
20260505164032 81 77 0.0 3.0 0.00 0.00 0.00 51 1017.2
20260505163531 81 36 1.0 3.0 0.00 0.00 0.00 54 1017.3
20260505163033 80 128 2.0 4.0 0.00 0.00 0.00 56 1017.2
20260505162530 80 346 0.0 5.0 0.00 0.00 0.00 57 1017.1
20260505162028 79 193 0.0 5.0 0.00 0.00 0.00 58 1017.2
20260505161528 79 193 1.0 6.0 0.00 0.00 0.00 58 1017.2
20260505161027 79 136 1.0 4.0 0.00 0.00 0.00 57 1017.3
20260505160526 79 141 1.0 4.0 0.00 0.00 0.00 59 1017.3
20260505153022 78 121 2.0 4.0 0.00 0.00 0.00 58 1017.4
20260505152521 78 122 1.0 4.0 0.00 0.00 0.00 59 1017.3
20260505152021 78 130 1.0 4.0 0.00 0.00 0.00 60 1017.3
20260505151521 78 29 1.0 4.0 0.00 0.00 0.00 62 1017.4
20260505151019 78 103 2.0 5.0 0.00 0.00 0.00 61 1017.3
20260505150520 77 129 2.0 5.0 0.00 0.00 0.00 62 1017.3
20260505140505 74 122 1.0 5.0 0.00 0.00 0.00 71 1017.3
20260505124542 64 360 0.0 0.0 0.00 0.00 0.00 89 1016.8
20260505124041 63 360 0.0 0.0 0.00 0.00 0.00 90 1016.8
20260505123541 62 360 0.0 0.0 0.00 0.00 0.00 92 1016.8
20260505123041 61 360 0.0 0.0 0.00 0.00 0.00 93 1016.8
20260505122546 61 360 0.0 0.0 0.00 0.00 0.00 93 1016.9
20260505122041 60 360 0.0 0.0 0.00 0.00 0.00 93 1016.9
20260505121551 59 360 0.0 0.0 0.00 0.00 0.00 94 1016.9
20260505121040 58 360 0.0 0.0 0.00 0.00 0.00 93 1016.9
20260505120539 58 360 0.0 0.0 0.00 0.00 0.00 93 1016.8
20260505120043 57 360 0.0 0.0 0.00 0.00 0.00 93 1016.8
20260505115544 57 360 0.0 0.0 0.00 0.00 0.00 93 1016.8
20260505115039 57 360 0.0 0.0 0.00 0.00 0.00 93 1016.5
20260505114540 56 360 0.0 0.0 0.00 0.00 0.00 92 1016.4
20260505114039 56 360 0.0 0.0 0.00 0.00 0.00 92 1016.5
20260505113538 56 360 0.0 0.0 0.00 0.00 0.00 92 1016.5
20260505113041 56 360 0.0 0.0 0.00 0.00 0.00 92 1016.7
20260505112538 56 360 0.0 0.0 0.00 0.00 0.00 92 1016.6
20260505112038 55 360 0.0 0.0 0.00 0.00 0.00 92 1016.6
20260505111542 55 360 0.0 0.0 0.00 0.00 0.00 92 1016.6
20260505111037 55 360 0.0 0.0 0.00 0.00 0.00 92 1016.3
20260505110536 55 360 0.0 0.0 0.00 0.00 0.00 91 1016.3
20260505102033 56 124 0.0 0.0 0.00 0.00 0.00 91 1016.0
20260505101535 56 124 0.0 0.0 0.00 0.00 0.00 91 1015.9
20260505101033 56 124 0.0 0.0 0.00 0.00 0.00 91 1015.8
20260505100536 56 124 0.0 0.0 0.00 0.00 0.00 91 1015.7
20260505100034 56 124 0.0 0.0 0.00 0.00 0.00 91 1015.8
20260505095532 56 124 0.0 0.0 0.00 0.00 0.00 91 1015.7
20260505095031 56 124 0.0 0.0 0.00 0.00 0.00 91 1015.7
20260505094535 56 124 0.0 0.0 0.00 0.00 0.00 91 1015.7
20260505094031 56 124 0.0 0.0 0.00 0.00 0.00 91 1015.7
20260505093531 56 124 0.0 0.0 0.00 0.00 0.00 91 1015.7
20260505093039 56 124 0.0 0.0 0.00 0.00 0.00 91 1015.6
20260505092531 56 124 0.0 0.0 0.00 0.00 0.00 91 1015.6
20260505092030 56 123 0.0 0.0 0.00 0.00 0.00 91 1015.5
20260505091530 56 123 0.0 0.0 0.00 0.00 0.00 90 1015.4
20260505091030 56 124 0.0 0.0 0.00 0.00 0.00 90 1015.5
20260505090528 57 123 0.0 0.0 0.00 0.00 0.00 90 1015.3
20260505090028 57 123 0.0 0.0 0.00 0.00 0.00 90 1015.3
20260505085528 57 123 0.0 0.0 0.00 0.00 0.00 91 1015.4
20260505085030 57 123 0.0 0.0 0.00 0.00 0.00 90 1015.3
20260505084528 57 123 0.0 0.0 0.00 0.00 0.00 90 1015.3
20260505084026 57 123 0.0 0.0 0.00 0.00 0.00 90 1015.3
20260505083526 57 133 0.0 0.0 0.00 0.00 0.00 90 1015.3
20260505083028 57 131 0.0 0.0 0.00 0.00 0.00 90 1015.2
20260505082526 57 128 0.0 0.0 0.00 0.00 0.00 90 1015.2
20260505082026 57 125 0.0 0.0 0.00 0.00 0.00 90 1015.3
20260505081530 57 125 0.0 0.0 0.00 0.00 0.00 90 1015.2
20260505081027 57 125 0.0 0.0 0.00 0.00 0.00 90 1015.2
20260505080524 57 125 0.0 0.0 0.00 0.00 0.00 90 1015.0